This is the latest recevied weather packets stored in our database for station/object N5XJB. If no packets are shown the sender has not sent any weather packets the latest 10 day(s).
| Time | Temp. | Humidity | Pressure | Rain* | Wind** | Luminosity | Snow |
|---|---|---|---|---|---|---|---|
| 1777997614 | 26.11° C | 83% | 1010.7 hPa | 0 mm | - | 90 W/m² | - |
| 1777997311 | 26.11° C | 83% | 1010.7 hPa | 0 mm | - | 133 W/m² | - |
| 1777997010 | 26.11° C | 83% | 1010.4 hPa | 0 mm | - | 172 W/m² | - |
| 1777996705 | 25.56° C | 84% | 1010.7 hPa | 0 mm | - | 265 W/m² | - |
| 1777996401 | 25.56° C | 84% | 1010.4 hPa | 0 mm | - | 163 W/m² | - |
| 1777996098 | 25.56° C | 85% | 1010.4 hPa | 0 mm | - | 216 W/m² | - |
| 1777995789 | 25.56° C | 85% | 1010.4 hPa | 0 mm | - | 182 W/m² | - |
| 1777995485 | 25.56° C | 85% | 1010.4 hPa | 0 mm | - | 146 W/m² | - |
| 1777995183 | 25.56° C | 85% | 1010.4 hPa | 0 mm | - | 175 W/m² | - |
| 1777994880 | 25.56° C | 85% | 1010.4 hPa | 0 mm | - | 113 W/m² | - |
| 1777994576 | 25.56° C | 85% | 1010.4 hPa | 0 mm | - | 131 W/m² | - |
| 1777994270 | 25.56° C | 85% | 1010.4 hPa | 0 mm | - | 120 W/m² | - |
| 1777993968 | 25.56° C | 86% | 1010.4 hPa | 0 mm | - | 110 W/m² | - |
| 1777993665 | 25.56° C | 86% | 1010.4 hPa | 0 mm | - | 111 W/m² | - |
| 1777993362 | 25.56° C | 85% | 1010.4 hPa | 0 mm | - | 70 W/m² | - |
| 1777993056 | 25.56° C | 85% | 1010.4 hPa | 0 mm | - | 115 W/m² | - |
| 1777992755 | 25.56° C | 85% | 1010.7 hPa | 0 mm | - | 121 W/m² | - |
| 1777992452 | 25.56° C | 85% | 1010 hPa | 0 mm | - | 119 W/m² | - |
| 1777992150 | 25.56° C | 85% | 1010 hPa | 0 mm | - | 128 W/m² | - |
| 1777991847 | 25.56° C | 85% | 1010 hPa | 0 mm | - | 172 W/m² | - |
| 1777991544 | 25.56° C | 86% | 1010 hPa | 0 mm | - | 164 W/m² | - |
| 1777991241 | 25.56° C | 86% | 1010 hPa | 0 mm | - | 173 W/m² | - |
| 1777990938 | 25.56° C | 86% | 1010.4 hPa | 0 mm | - | 145 W/m² | - |
| 1777990636 | 25° C | 87% | 1010 hPa | 0 mm | - | 138 W/m² | - |
| 1777990333 | 25° C | 87% | 1010 hPa | 0 mm | - | 138 W/m² | - |
* Rain latest hour (hover to see other rain measurements)
** Current wind speed in m/s (hover to see current wind gust speed)